User: anonymous   Login
Location: Sherrills_Ford_Terrell
(35.6000°N, 80.9830°W)
Time: 06:34:58
(UTC-04:00)
Language:

CZ-4B R/B - Orbit

View from above orbital plane
View from above orbital plane
View from above satellite
View from above satellite

Ground track
Ground track

The orbit data is extracted from the following two-line orbital elements,

1 29093U 06015B   17178.86140664 +.00001717 +00000-0 +42776-4 0  9990
2 29093 097.4966 290.0226 0062267 279.6652 079.7563 15.39836423619071
Epoch (UTC): 27 June 2017 20:40:25
Eccentricity: 0.0062267
inclination: 97.4966°
perigee height: 404 km
apogee height: 489 km
right ascension of ascending node: 290.0226°
argument of perigee: 279.6652°
revolutions per day: 15.39836423
mean anomaly at epoch: 79.7563°
orbit number at epoch: 61907

The dashed part of the orbit path shows where the satellite is in the earth's shadow,  

DLR